DLH1AN EDDS-EDDF

Flight info

Callsign DLH1AN
Flight time 0h 29m
Altitude 18000
Route ETASA4B ETASA T163 SPESA SPESA5C
Aircraft A319/M-SDE3FGHIRWY/LB1

Departure

Time 2026-04-14 15:03
Airport Stuttgart Airport (EDDS)

Arrival

Time 2026-04-14 15:32
Airport Frankfurt Main Airport (EDDF)
Time Latitude Longitude Altitude Speed Heading
2026-04-14 14:43 48.68885 9.19358 1316 ft 0 kts 344°
2026-04-14 14:53 48.68880 9.19360 1315 ft 3 kts 344°
2026-04-14 14:53 48.68855 9.19372 1315 ft 4 kts 344°
2026-04-14 14:53 48.68830 9.19382 1314 ft 4 kts 355°
2026-04-14 14:54 48.68808 9.19374 1314 ft 4 kts 56°
2026-04-14 14:54 48.68800 9.19344 1314 ft 1 kts 74°
2026-04-14 14:54 48.68799 9.19344 1314 ft 0 kts 74°
2026-04-14 14:56 48.68800 9.19345 1314 ft 1 kts 74°
2026-04-14 14:56 48.68805 9.19373 1313 ft 5 kts 74°
2026-04-14 14:56 48.68819 9.19450 1312 ft 10 kts 74°
2026-04-14 14:57 48.68842 9.19574 1310 ft 14 kts 74°
2026-04-14 14:57 48.68872 9.19731 1307 ft 17 kts 74°
2026-04-14 14:57 48.68880 9.19871 1302 ft 12 kts 134°
2026-04-14 14:57 48.68795 9.19946 1295 ft 16 kts 134°
2026-04-14 14:58 48.68759 9.20070 1289 ft 14 kts 78°
2026-04-14 14:58 48.68789 9.20229 1289 ft 17 kts 74°
2026-04-14 14:58 48.68826 9.20421 1281 ft 21 kts 73°
2026-04-14 14:58 48.68868 9.20644 1276 ft 24 kts 74°
2026-04-14 14:59 48.68917 9.20897 1271 ft 26 kts 73°
2026-04-14 14:59 48.68970 9.21177 1264 ft 28 kts 74°
2026-04-14 14:59 48.69019 9.21438 1258 ft 22 kts 74°
2026-04-14 14:59 48.69062 9.21666 1253 ft 24 kts 74°
2026-04-14 15:00 48.69111 9.21924 1252 ft 27 kts 74°
2026-04-14 15:00 48.69163 9.22197 1244 ft 27 kts 74°
2026-04-14 15:00 48.69215 9.22470 1238 ft 28 kts 74°
2026-04-14 15:00 48.69268 9.22750 1228 ft 25 kts 74°
2026-04-14 15:01 48.69316 9.23007 1223 ft 22 kts 74°
2026-04-14 15:01 48.69337 9.23158 1219 ft 11 kts 114°
2026-04-14 15:01 48.69249 9.23203 1213 ft 17 kts 165°
2026-04-14 15:01 48.69186 9.23225 1213 ft 3 kts 184°
2026-04-14 15:02 48.69177 9.23195 1213 ft 5 kts 252°
2026-04-14 15:02 48.69140 9.22993 1217 ft 49 kts 254°
2026-04-14 15:02 48.68973 9.22113 1250 ft 122 kts 254°
2026-04-14 15:02 48.68703 9.20651 1420 ft 160 kts 257°
2026-04-14 15:03 48.68409 9.19034 2206 ft 159 kts 257°
2026-04-14 15:03 48.68094 9.17394 2843 ft 170 kts 256°
2026-04-14 15:03 48.67736 9.15568 3255 ft 193 kts 255°
2026-04-14 15:03 48.67324 9.13496 3683 ft 218 kts 255°
2026-04-14 15:04 48.66972 9.11146 4294 ft 238 kts 272°
2026-04-14 15:04 48.67497 9.08788 5190 ft 242 kts 306°
2026-04-14 15:04 48.68617 9.06890 6214 ft 244 kts 326°
2026-04-14 15:04 48.70211 9.05853 6926 ft 261 kts 347°
2026-04-14 15:05 48.72007 9.05111 7681 ft 272 kts 345°
2026-04-14 15:05 48.73814 9.04261 8584 ft 279 kts 343°
2026-04-14 15:05 48.75671 9.03332 9511 ft 285 kts 342°
2026-04-14 15:05 48.77580 9.02420 10380 ft 291 kts 347°
2026-04-14 15:06 48.79641 9.02116 10925 ft 309 kts
2026-04-14 15:06 48.81826 9.02779 11248 ft 334 kts 20°
2026-04-14 15:06 48.83919 9.04476 11779 ft 347 kts 32°
2026-04-14 15:06 48.85994 9.06409 12557 ft 353 kts 30°
2026-04-14 15:07 48.88240 9.07960 13330 ft 357 kts 18°
2026-04-14 15:07 48.90669 9.08796 14126 ft 360 kts
2026-04-14 15:07 48.93140 9.09132 14843 ft 363 kts
2026-04-14 15:07 48.95671 9.09471 15547 ft 367 kts
2026-04-14 15:08 48.98231 9.09831 16234 ft 372 kts
2026-04-14 15:08 49.00822 9.10202 16933 ft 376 kts
2026-04-14 15:08 49.03440 9.10579 17634 ft 380 kts
2026-04-14 15:08 49.06088 9.10964 18075 ft 384 kts
2026-04-14 15:09 49.08764 9.11349 18179 ft 393 kts
2026-04-14 15:09 49.11516 9.11747 18188 ft 401 kts
2026-04-14 15:09 49.14302 9.12150 18188 ft 403 kts
2026-04-14 15:09 49.17095 9.12552 18194 ft 403 kts
2026-04-14 15:10 49.19851 9.12945 18184 ft 403 kts
2026-04-14 15:10 49.22643 9.13342 18188 ft 403 kts
2026-04-14 15:10 49.25435 9.13742 18188 ft 403 kts
2026-04-14 15:10 49.28226 9.14146 18187 ft 403 kts
2026-04-14 15:11 49.31017 9.14544 18188 ft 403 kts
2026-04-14 15:11 49.33809 9.14938 18188 ft 403 kts
2026-04-14 15:11 49.36601 9.15332 18190 ft 403 kts
2026-04-14 15:11 49.39394 9.15729 18195 ft 403 kts
2026-04-14 15:12 49.42153 9.16122 18191 ft 404 kts
2026-04-14 15:12 49.44950 9.16524 18189 ft 404 kts
2026-04-14 15:12 49.47748 9.16923 18188 ft 404 kts
2026-04-14 15:12 49.50548 9.17320 18188 ft 404 kts
2026-04-14 15:13 49.53347 9.17721 18190 ft 404 kts
2026-04-14 15:13 49.56141 9.18126 18189 ft 404 kts
2026-04-14 15:13 49.58941 9.18533 18190 ft 404 kts
2026-04-14 15:13 49.61734 9.19028 18189 ft 405 kts
2026-04-14 15:14 49.64435 9.20190 18018 ft 398 kts 20°
2026-04-14 15:14 49.66891 9.22063 17749 ft 392 kts 31°
2026-04-14 15:14 49.69034 9.24539 17487 ft 391 kts 41°
2026-04-14 15:14 49.70995 9.27434 17218 ft 389 kts 39°
2026-04-14 15:15 49.73227 9.29766 16964 ft 386 kts 26°
2026-04-14 15:15 49.75692 9.31341 16701 ft 383 kts 16°
2026-04-14 15:15 49.78277 9.32273 16445 ft 381 kts
2026-04-14 15:15 49.80893 9.32745 16189 ft 377 kts 356°
2026-04-14 15:16 49.83445 9.32017 15901 ft 371 kts 339°
2026-04-14 15:16 49.85677 9.30115 15350 ft 365 kts 319°
2026-04-14 15:16 49.87340 9.27267 14818 ft 360 kts 301°
2026-04-14 15:16 49.88360 9.23761 14271 ft 356 kts 286°
2026-04-14 15:17 49.89061 9.20081 13690 ft 355 kts 285°
2026-04-14 15:17 49.89753 9.16438 13128 ft 352 kts 285°
2026-04-14 15:17 49.90440 9.12804 12579 ft 350 kts 285°
2026-04-14 15:17 49.91123 9.09193 12018 ft 348 kts 285°
2026-04-14 15:18 49.91803 9.05604 11441 ft 346 kts 285°
2026-04-14 15:18 49.92477 9.02037 10966 ft 342 kts 285°
2026-04-14 15:18 49.93152 8.98497 10723 ft 342 kts 285°
2026-04-14 15:18 49.93829 8.94968 10480 ft 341 kts 285°
2026-04-14 15:19 49.94498 8.91490 10245 ft 340 kts 285°
2026-04-14 15:19 49.95173 8.87968 10000 ft 340 kts 285°
2026-04-14 15:19 49.95838 8.84455 9725 ft 338 kts 285°
2026-04-14 15:19 49.96501 8.80957 9455 ft 338 kts 285°
2026-04-14 15:20 49.97161 8.77463 9193 ft 337 kts 286°
2026-04-14 15:20 49.97648 8.73920 8924 ft 335 kts 276°
2026-04-14 15:20 49.97620 8.70312 8666 ft 334 kts 263°
2026-04-14 15:20 49.97083 8.66806 8408 ft 335 kts 251°
2026-04-14 15:21 49.96257 8.63418 8156 ft 336 kts 250°
2026-04-14 15:21 49.95432 8.60029 7897 ft 335 kts 250°
2026-04-14 15:21 49.94637 8.56745 7655 ft 322 kts 250°
2026-04-14 15:21 49.93866 8.53554 7455 ft 309 kts 251°
2026-04-14 15:22 49.93125 8.50489 7247 ft 297 kts 251°
2026-04-14 15:22 49.92411 8.47534 7049 ft 287 kts 251°
2026-04-14 15:22 49.91726 8.44677 6848 ft 281 kts 251°
2026-04-14 15:22 49.91049 8.41841 6649 ft 280 kts 251°
2026-04-14 15:23 49.90369 8.39010 6450 ft 280 kts 251°
2026-04-14 15:23 49.89687 8.36185 6243 ft 279 kts 251°
2026-04-14 15:23 49.89003 8.33371 6039 ft 279 kts 251°
2026-04-14 15:23 49.88318 8.30596 5829 ft 279 kts 251°
2026-04-14 15:24 49.87636 8.27786 5596 ft 277 kts 254°
2026-04-14 15:24 49.87468 8.24876 5336 ft 270 kts 282°
2026-04-14 15:24 49.88157 8.22164 5088 ft 284 kts 302°
2026-04-14 15:24 49.89146 8.19554 4821 ft 276 kts 303°
2026-04-14 15:25 49.90123 8.17058 4555 ft 266 kts 303°
2026-04-14 15:25 49.91082 8.14668 4293 ft 258 kts 303°
2026-04-14 15:25 49.92149 8.12522 4067 ft 245 kts 322°
2026-04-14 15:25 49.93638 8.11516 4006 ft 227 kts 355°
2026-04-14 15:26 49.95104 8.11971 4004 ft 214 kts 33°
2026-04-14 15:26 49.95935 8.13777 4004 ft 205 kts 78°
2026-04-14 15:26 49.95821 8.15890 4017 ft 197 kts 101°
2026-04-14 15:26 49.95843 8.17939 4006 ft 189 kts 65°
2026-04-14 15:27 49.96463 8.19720 4013 ft 187 kts 65°
2026-04-14 15:27 49.96929 8.21596 4019 ft 186 kts 68°
2026-04-14 15:27 49.97366 8.23429 4035 ft 177 kts 68°
2026-04-14 15:27 49.97792 8.25197 3840 ft 173 kts 68°
2026-04-14 15:28 49.98210 8.26920 3612 ft 172 kts 67°
2026-04-14 15:28 49.98629 8.28651 3377 ft 171 kts 67°
2026-04-14 15:28 49.99048 8.30382 3137 ft 171 kts 68°
2026-04-14 15:28 49.99467 8.32114 2881 ft 171 kts 68°
2026-04-14 15:29 49.99885 8.33841 2617 ft 170 kts 68°
2026-04-14 15:29 50.00302 8.35572 2391 ft 171 kts 67°
2026-04-14 15:29 50.00724 8.37305 2124 ft 170 kts 68°
2026-04-14 15:29 50.01130 8.38998 1882 ft 164 kts 69°
2026-04-14 15:30 50.01521 8.40630 1619 ft 157 kts 68°
2026-04-14 15:30 50.01888 8.42166 1392 ft 146 kts 68°
2026-04-14 15:30 50.02228 8.43573 1184 ft 138 kts 68°
2026-04-14 15:30 50.02563 8.44968 1029 ft 138 kts 68°
2026-04-14 15:31 50.02896 8.46355 829 ft 136 kts 68°
2026-04-14 15:31 50.03230 8.47728 636 ft 136 kts 67°
2026-04-14 15:31 50.03557 8.49093 461 ft 134 kts 67°
2026-04-14 15:31 50.03877 8.50428 323 ft 123 kts 69°
2026-04-14 15:32 50.04134 8.51503 332 ft 83 kts 70°
2026-04-14 15:32 50.04289 8.52143 338 ft 52 kts 69°
2026-04-14 15:32 50.04390 8.52590 349 ft 33 kts 78°
2026-04-14 15:32 50.04380 8.52936 356 ft 31 kts 100°
2026-04-14 15:33 50.04349 8.53221 361 ft 22 kts 93°
2026-04-14 15:33 50.04380 8.53435 373 ft 20 kts 71°
2026-04-14 15:33 50.04403 8.53644 375 ft 21 kts 84°
2026-04-14 15:33 50.04419 8.53879 375 ft 22 kts 84°
2026-04-14 15:34 50.04435 8.54123 375 ft 23 kts 84°
2026-04-14 15:34 50.04451 8.54369 373 ft 19 kts 85°
2026-04-14 15:34 50.04435 8.54577 368 ft 22 kts 112°
2026-04-14 15:34 50.04348 8.54740 362 ft 18 kts 144°
2026-04-14 15:35 50.04233 8.54819 355 ft 19 kts 162°
2026-04-14 15:35 50.04108 8.54887 350 ft 16 kts 160°
2026-04-14 15:35 50.04027 8.54941 353 ft 12 kts 140°
2026-04-14 15:35 50.04028 8.55059 359 ft 13 kts 68°
2026-04-14 15:36 50.04065 8.55218 354 ft 18 kts 70°
2026-04-14 15:36 50.04116 8.55429 358 ft 24 kts 68°
2026-04-14 15:36 50.04176 8.55676 357 ft 24 kts 70°
2026-04-14 15:36 50.04230 8.55909 356 ft 20 kts 70°
2026-04-14 15:37 50.04309 8.55957 355 ft 14 kts 334°
2026-04-14 15:37 50.04385 8.55924 365 ft 3 kts
2026-04-14 15:37 50.04392 8.55926 360 ft 0 kts
2026-04-14 15:38 50.04393 8.55927 356 ft 1 kts 11°
2026-04-14 15:38 50.04412 8.55952 363 ft 6 kts 58°
2026-04-14 15:39 50.04434 8.56041 361 ft 11 kts 70°
2026-04-14 15:39 50.04465 8.56176 358 ft 16 kts 70°
2026-04-14 15:39 50.04504 8.56339 360 ft 15 kts 69°
2026-04-14 15:39 50.04558 8.56453 363 ft 10 kts 47°
2026-04-14 15:40 50.04542 8.56553 360 ft 7 kts 115°
2026-04-14 15:40 50.04532 8.56588 358 ft 0 kts 114°